Regional Weather Roundup
Issued by NWS

Home | Current Version | Previous Version | Text Only | Print | Product List | Glossary On
Versions: 1 2 3 4 5 6 7 8 9 10 11 12 13 14 15 16 17 18 19 20 21 22 23 24 25 26 27 28 29 30 31 32 33 34 35 36 37 38 39 40 41 42 43 44 45 46 47 48 49 50
000
ASUS44 KEWX 250303
RWRTX
SOUTH TEXAS REGIONAL WEATHER ROUNDUP
NATIONAL WEATHER SERVICE AUSTIN/SAN ANTONIO TX
1000 PM CDT MON JUL 24 2017

NOTE: "FAIR" INDICATED FEW OR NO CLOUDS BELOW 12,000 FEET WITH NO
SIGNIFICANT WEATHER AND/OR OBSTRUCTIONS TO VISIBILITY.

* - THESE STATIONS ARE NOT NWS OR FAA STATIONS...AND ARE NOT SUBJECT
    TO NWS AND FAA QUALITY CONTROL.

TXZ171-172-183>190-250400-
TEXAS HILL COUNTRY AND EDWARDS PLATEAU

CITY           SKY/WX    TMP DP  RH WIND       PRES   REMARKS
JUNCTION       PTCLDY    75  72  90 CALM      30.00R
*LLANO         CLOUDY    77  73  88 CALM      30.00R
BURNET         CLOUDY    79  68  69 SE3       30.00R
*HORSESHOE BAY CLOUDY    77  71  81 SE5       29.97R
*KERRVILLE     PTCLDY    81  73  78 CALM      29.99R
*FREDERICKSBRG CLOUDY    77  70  79 CALM      30.00R
*ROCKSPRINGS   NOT AVBL
*BOERNE STAGE  PTCLDY    84  63  48 SE10G17   30.00R
*CASTROVILLE   PTCLDY    88  66  48 SE15      29.96R HX  90
HONDO          PTCLDY    91  69  48 SE22G28   29.94R HX  96
*UVALDE        PTCLDY    91  62  38 SE13G18   29.93R HX  91
DEL RIO        CLEAR     92  53  26 E7        29.89R
LAUGHLIN AFB   PTCLDY    89  56  32 E8        29.90R
CARRIZO SPRGS  CLEAR     95  63  34 SE14G21   29.88R HX  96
*EAGLE PASS    NOT AVBL
$$

TXZ173-191>194-202-209-217>225-228-250400-
CENTRAL AND SOUTH CENTRAL TEXAS

CITY           SKY/WX    TMP DP  RH WIND       PRES   REMARKS
GEORGETOWN     CLEAR     79  75  89 E7        29.98R
AUSTIN/BERGSTM PTCLDY    79  72  79 S5        29.95R
AUSTIN/MABRY   CLEAR     80  73  79 E5        29.97R
*AUSTIN/EXEC     N/A     77  77 100 CALM      29.97R
*LAGO VISTA    PTCLDY    76  73  88 E7        30.00R
SAN MARCOS     MOCLDY    84  64  51 S15       29.97R
NEW BRAUNFELS  PTCLDY    86  67  52 S22       29.95R
RANDOLPH AFB   PTCLDY    85  68  56 SE12      29.96R
PT SAN ANTONIO PTCLDY    87  69  54 SE20G25   29.94R HX  91
SAN ANTONIO    PTCLDY    88  65  46 SE15      29.96R HX  90
STINSON FIELD  MOCLDY    88  66  48 SE15      29.93R HX  90
*LA GRANGE     CLOUDY    85  73  67 SE6       29.96R HX  91
*GIDDINGS      CLOUDY    85  67  55 S9        29.98R
*GONZALES      CLOUDY    83  73  70 S10       29.96R
$$

TXZ163>164-176>182-195>201-210>213-226-227-235-250400-
SOUTHEAST TEXAS

CITY           SKY/WX    TMP DP  RH WIND       PRES   REMARKS
COLLEGE STN    CLOUDY    87  68  52 S14       29.97R HX  90
*BRYAN         CLOUDY    85  68  56 S10       29.98R
*CALDWELL      NOT AVBL
*CROCKETT      CLOUDY    81  77  89 CALM      30.00R
*BRENHAM       CLOUDY    86  71  59 S9        29.99R HX  91
HUNTSVILLE     PTCLDY    84  69  60 S7        29.98R
CONROE         CLEAR     82  71  69 S8        29.99R
HOUSTON BUSH   PTCLDY    84  72  67 S8        30.00R
HOUSTON HOBBY  MOCLDY    83  73  72 S6        30.00R
*HOUSTON SW AP MOCLDY    78  74  87 CALM      30.01R
PEARLAND       MOCLDY    84  74  71 S3        30.02R HX  91
HOUSTON HOOKS  MOCLDY    83  72  69 S3        29.99R
ELLINGTON FLD  MOCLDY    84  72  65 S3        30.02R
SUGAR LAND     MOCLDY    82  75  79 S8        30.00R
*HOUSTON EXEC  MOCLDY    81  73  78 S8        30.01R
*CLEVELAND MUN MOCLDY    81  75  82 S8        30.00R
*WHARTON       PTCLDY    78  72  82 SE6       30.00R
*COLUMBUS      FAIR      82  73  74 S9        30.00R
*EAGLE LAKE    CLOUDY    80  75  84 S6        29.99R
$$

TXZ214>216-236>238-250400-
THE UPPER TEXAS COAST

CITY           SKY/WX    TMP DP  RH WIND       PRES   REMARKS
*ORANGE        PTCLDY    83  76  80 SW6       30.03R HX  92
PORT ARTHUR    PTCLDY    81  74  79 S7        30.01R
GALVESTON      PTCLDY    83  77  82 S9        30.01S HX  92
ANGLETON       MOCLDY    80  76  87 S5        30.00R
*BAY CITY      PTCLDY    80  75  86 SE3       29.99S
PALACIOS       PTCLDY    83  73  72 S13       29.98S
$$

TXZ229>234-239>247-250400-
TEXAS COASTAL BEND AND RIO GRANDE PLAINS

CITY           SKY/WX    TMP DP  RH WIND       PRES   REMARKS
VICTORIA       PTCLDY    82  74  76 SE12      29.97S
*BEEVILLE      PTCLDY    83  77  81 SE14G20   29.96R HX  91
ROCKPORT       CLEAR     84  75  74 S12       29.96S HX  92
*PORT ARANSAS  PTCLDY    83  76  77 S16       29.98R HX  91
*PORT LAVACA   PTCLDY    80  74  82 SE7       29.98S
*INGLESIDE     PTCLDY    85  77  78 MISG      29.97R HX  95
CORPUS CHRISTI MOCLDY    83  77  82 SE10      29.96S HX  92
CORPUS NAS     CLOUDY    85  79  82 SE20      29.97R HX  98
*ROBSTOWN      CLEAR     84  76  76 SE13G20   29.96S HX  94
ALICE          CLEAR     83  75  77 SE15      29.95R HX  90
KINGSVILLE NAS MOCLDY    84  78  82 SE14G23   29.95R HX  95
COTULLA        PTCLDY    90  70  51 SE18G26   29.91R HX  95
*FAITH RANCH   PTCLDY    95  63  34 SE14      29.90R HX  96
LAREDO         CLEAR     92  69  47 SE18G25   29.91R HX  97
$$

TXZ248>255-250400-
DEEP SOUTH TEXAS

CITY           SKY/WX    TMP DP  RH WIND       PRES   REMARKS
BROWNSVILLE    CLEAR     82  75  79 SE13      29.98R
PORT ISABEL    CLEAR     84  76  76 SE15      29.97R HX  93
*SOUTH PADRE   NOT AVBL
HARLINGEN      CLEAR     84  75  74 SE17      29.96R HX  92
*HEBBRONVILLE  CLEAR     87  66  49 S13G18    29.96R
MCALLEN        CLEAR     86  72  62 SE18G25   29.95R HX  92
*WESLACO       CLEAR     84  73  68 S17G23    29.95R HX  90
FALFURRIAS     CLEAR     84  74  72 SE8       29.95R HX  92
EDINBURG       CLEAR     87  70  56 SE13G22   29.96R HX  91
*ZAPATA        CLEAR     90  65  44 SE13G18   29.92R HX  91
$$

TXZ213>215-236>238-242>244-246-247-251-254-255-250400-
CMAN STATIONS

STATION/POSITION TIME  TEMP    WIND        PRES    WAVE
                       AIR SEA DIR/SP/G            HT/PER
                 (UTC) (F)     (DEG/KT/KT) (MB)    (FT/S)
SABINE PASS      0224   84 88  190/  9/ 13 1017.7
SEA RIM ST PARK  0200   84     200/ 12/ 14 1016.7
NORTH JETTY/GLS  0224      86  180/ 11/ 13 1015.6
EAGLE POINT      0224   85 87  210/ 10/ 12 1016.1
MORGANS POINT    0224   85 87  190/  7/ 13 1015.8
MISSION/ARANSAS  0200          150/ 17     1015.0
PORT O`CONNOR    0224   85     150/ 15/ 19 1014.6
PORT ARANSAS     0200   84 86  150/ 21/ 22 1014.7
MALAQUITE BEACH  0224   85 87  130/ 19/ 22 1013.8
BAFFIN BAY       0224   84 86              1014.6
PORT ISABEL      0224   83 85              1014.8
$$

GMZ080-GMZ150>470-250400-
OFFSHORE BUOY REPORTS

STATION/POSITION TIME  TEMP    WIND        PRES    WAVE
                       AIR SEA DIR/SP/G            HT/PER
                 (UTC) (F)     (DEG/KT/KT) (MB)    (FT/S)
20 E GALVESTON   0150   85 87  190/ 12/ 14 1016.2    3/ 7
90 E PT ARANSAS  0150   85 86  130/ 14/ 17 1015.5    3/ 6
35 NE PT MANSFLD 0150   85     150/ 16/ 17 1013.8    5/ 6
200 E PT ISABEL  0150   86 87  130/ 10/ 14 1016.4    3/ 6
$$



USA.gov is the U.S. government's official web portal to all federal, state and local government web resources and services.